User: anonymous   Login
Location: Les Coudrans
(46.1056°N, 1.1158°W)
Time: 02:46:07
(UTC+00:00)
Language:

USA 305 - Orbit

View from above orbital plane
View from above orbital plane
View from above satellite
View from above satellite

Ground track
Ground track

The orbit data is extracted from the following two-line orbital elements,

1 45873U 20046A   21125.83107638 0.00002300  00000-0  18818-3 0    03
2 45873  53.9733  89.4568 0003835 338.6689  21.3310 14.98880605    00
Epoch (UTC): 05 May 2021 19:56:44
Eccentricity: 0.0003835
inclination: 53.9733°
perigee height: 567 km
apogee height: 573 km
right ascension of ascending node: 89.4568°
argument of perigee: 338.6689°
revolutions per day: 14.98880605
mean anomaly at epoch: 21.3310°
orbit number at epoch: 0

The dashed part of the orbit path shows where the satellite is in the earth's shadow,  

DLR